EW4498 Weather Reports


time (UTC)temp
C
wind
direction
speed
KPH
gust
KPH
rain 1hr
cm
rain 24hr
cm
rain mn
cm
humidity
%
barometer
mb
20260902191522 14 229 3.2 6.4 0.00 0.43 0.43 90 1014.5
20260902190058 14 226 3.2 9.7 0.00 0.43 0.43 90 1014.5
20260902184551 14 235 1.6 8.0 0.00 0.43 0.43 89 1014.5
20260902183142 15 225 1.6 9.7 0.00 0.43 0.43 89 1014.4
20260902181554 15 229 6.4 14.5 0.05 0.43 0.43 89 1014.3
20260902180142 15 232 6.4 17.7 0.08 0.43 0.43 88 1014.4
20260902174552 15 225 8.0 16.1 0.08 0.43 0.43 88 1014.2
20260902173041 15 249 8.0 19.3 0.13 0.43 0.43 89 1014.2
20260902171642 16 194 6.4 14.5 0.08 0.41 0.41 90 1014.3
20260902164511 16 226 4.8 14.5 0.05 0.36 0.36 89 1014.5
20260902163119 16 239 4.8 11.3 0.00 0.33 0.33 89 1014.4
20260902161551 16 230 1.6 9.7 0.05 0.33 0.33 88 1014.5
20260902160041 16 222 4.8 9.7 0.10 0.33 0.33 88 1014.6
20260902154549 16 252 6.4 11.3 0.15 0.33 0.33 88 1014.5
20260902153047 15 238 4.8 14.5 0.28 0.33 0.33 89 1014.7
20260902151547 15 201 6.4 12.9 0.25 0.28 0.28 87 1014.8
20260902150046 16 221 4.8 14.5 0.20 0.23 0.23 87 1014.9
20260902144546 16 234 4.8 17.7 0.15 0.15 0.15 86 1014.8
20260902143043 17 217 6.4 20.9 0.03 0.05 0.05 83 1014.9
20260902141544 18 277 11.3 17.7 0.00 0.03 0.03 75 1014.6
20260902140042 20 236 6.4 22.5 0.00 0.03 0.03 70 1014.5
20260902134542 19 254 14.5 25.7 0.00 0.10 0.03 71 1014.5
20260902133041 20 235 11.3 27.4 0.00 0.10 0.03 70 1014.6
20260902131540 19 234 11.3 25.7 0.00 0.10 0.03 72 1014.5
20260902130039 19 229 16.1 33.8 0.00 0.10 0.03 72 1014.7
20260902124538 20 225 12.9 24.1 0.00 0.10 0.03 72 1014.6
20260902123043 19 190 11.3 27.4 0.00 0.10 0.03 76 1014.8
20260902121536 19 274 8.0 24.1 0.00 0.10 0.03 76 1014.8
20260902120037 19 186 11.3 19.3 0.00 0.10 0.03 77 1014.9
20260902114539 20 220 11.3 25.7 0.00 0.10 0.03 74 1015.0
20260902113040 20 250 9.7 25.7 0.00 0.10 0.03 71 1014.9
20260902111533 21 279 9.7 29.0 0.00 0.10 0.03 68 1015.0
20260902110031 20 236 14.5 29.0 0.00 0.10 0.03 74 1015.0
20260902104530 20 218 8.0 27.4 0.00 0.13 0.03 72 1015.0
20260902103030 20 202 8.0 29.0 0.00 0.13 0.03 72 1015.0
20260902101529 20 247 11.3 30.6 0.00 0.13 0.03 73 1015.0
20260902100026 19 213 9.7 24.1 0.00 0.13 0.03 75 1015.0
20260902094520 18 244 12.9 30.6 0.00 0.13 0.03 76 1015.1
20260902093019 19 224 6.4 19.3 0.00 0.13 0.03 78 1015.1
20260902091516 18 232 12.9 24.1 0.00 0.13 0.03 77 1015.1
20260902090019 18 251 9.7 19.3 0.00 0.13 0.03 78 1015.2
20260902084522 18 227 8.0 17.7 0.00 0.13 0.03 81 1015.3
20260902083010 17 228 4.8 17.7 0.00 0.13 0.03 84 1015.2
20260902081507 17 214 6.4 17.7 0.00 0.13 0.03 83 1015.2
20260902080005 17 236 9.7 19.3 0.00 0.13 0.03 83 1015.2
20260902074501 17 226 9.7 19.3 0.00 0.13 0.03 84 1015.2
20260902073100 16 219 8.0 17.7 0.00 0.13 0.03 85 1015.1
20260902071600 16 221 6.4 11.3 0.00 0.13 0.03 87 1015.0
20260902070053 16 205 4.8 14.5 0.00 0.13 0.03 87 1015.0
20260902064600 16 226 6.4 12.9 0.00 0.13 0.03 88 1015.0
20260902063148 15 230 4.8 16.1 0.00 0.13 0.03 89 1015.0
20260902060043 15 268 4.8 11.3 0.00 0.13 0.03 90 1015.0
20260902054548 15 236 4.8 8.0 0.00 0.13 0.03 91 1015.0
20260902053045 14 201 3.2 8.0 0.00 0.13 0.03 91 1014.9
20260902051538 14 250 3.2 9.7 0.00 0.13 0.03 91 1014.9
20260902050034 14 216 3.2 8.0 0.00 0.13 0.03 91 1014.8
20260902044532 13 213 3.2 8.0 0.00 0.13 0.03 91 1015.0
20260902043031 13 215 3.2 9.7 0.00 0.13 0.03 92 1014.9
20260902041530 13 200 4.8 9.7 0.00 0.13 0.03 92 1014.9
20260902040032 12 212 4.8 9.7 0.03 0.13 0.03 92 1015.0
20260902034529 12 225 0.0 4.8 0.03 0.13 0.03 92 1014.9
20260902033028 12 213 3.2 8.0 0.03 0.13 0.03 92 1015.0
20260902031528 12 213 0.0 6.4 0.03 0.13 0.03 91 1015.1
20260902030027 12 239 0.0 3.2 0.00 0.10 0.00 91 1015.0
20260902024527 12 240 0.0 4.8 0.00 0.13 0.00 92 1015.1
20260902023034 11 267 0.0 0.0 0.00 0.13 0.00 91 1015.1
20260902021525 11 267 0.0 0.0 0.00 0.13 0.00 91 1015.0
20260902020026 11 267 0.0 0.0 0.00 0.13 0.00 90 1015.0
20260902014533 12 267 0.0 0.0 0.00 0.13 0.00 89 1015.0
20260902013021 12 267 0.0 0.0 0.00 0.13 0.00 90 1014.9
20260902011538 12 267 0.0 0.0 0.00 0.13 0.00 89 1015.0
20260902010019 12 267 0.0 0.0 0.00 0.13 0.00 87 1015.0
20260902004517 12 267 0.0 0.0 0.00 0.13 0.00 87 1015.1
20260902003014 13 267 0.0 0.0 0.00 0.13 0.00 86 1015.1
20260902001513 13 267 0.0 4.8 0.00 0.13 0.00 86 1015.1
20260902000010 13 259 0.0 4.8 0.00 0.13 0.00 86 1015.0
20260901234508 14 300 0.0 8.0 0.00 0.13 0.00 86 1015.2
20260901233006 14 319 0.0 9.7 0.00 0.13 0.00 86 1015.2
20260901231506 15 306 1.6 8.0 0.00 0.13 0.00 87 1015.2
20260901230004 15 231 1.6 8.0 0.00 0.13 0.00 88 1015.1
20260901224606 15 246 0.0 11.3 0.00 0.13 0.00 89 1014.9
20260901223057 15 236 1.6 8.0 0.00 0.13 0.00 90 1014.9
20260901221600 14 258 0.0 0.0 0.00 0.13 0.00 89 1014.8
20260901220052 15 259 0.0 6.4 0.00 0.13 0.00 89 1014.8
20260901214600 15 234 0.0 3.2 0.00 0.13 0.13 88 1014.7
20260901213055 15 248 0.0 4.8 0.00 0.13 0.13 88 1014.7
20260901211550 15 231 1.6 4.8 0.00 0.13 0.13 87 1014.5
20260901210147 15 246 1.6 8.0 0.00 0.13 0.13 87 1014.4
20260901204545 15 247 0.0 3.2 0.00 0.13 0.13 86 1014.4
20260901203013 15 249 1.6 8.0 0.00 0.13 0.13 85 1014.3
20260901201555 15 244 0.0 6.4 0.00 0.13 0.13 84 1014.3
20260901200037 15 246 0.0 4.8 0.00 0.13 0.13 84 1014.2
20260901194642 16 258 1.6 9.7 0.00 0.15 0.13 84 1014.1
20260901191639 16 224 1.6 8.0 0.00 0.15 0.13 83 1014.0